STARLINK-36349

Last updated on Fri Mar 27 2026 00:02:06 GMT+0000 (Coordinated Universal Time)

1 67964U 26038D 26085.50002314 -.02221753 00000+0 -64699-1 0 9995 2 67964 97.2865 96.3240 0002060 107.3530 196.7278 15.38771748 5907

Satellite not in orbit